"2010-02-26 00:00:00",1713879,4.41,41.15,13.26,1.299,2.15,99.96603,-0.786,0.475,79.54,0,109.6,13.58,-0.04,3.2
"2010-02-26 00:00:30",1713880,4.888,37.19,9.58,1.194,2.994,99.96603,-0.786,0.478,79.76,0,109.6,13.58,-0.04,359.2
"2010-02-26 00:01:00",1713881,5.094,31.65,5.736,0.974,3.892,99.96546,-0.788,0.539,79.99,0,109.6,13.59,-0.04,353.6
"2010-02-26 00:01:30",1713882,5.04,33.12,6.123,1.143,3.349,99.94933,-0.829,0.442,80.1,0,109.6,13.59,-0.08,355.1
"2010-02-26 00:02:00",1713883,3.558,26.29,6.528,1.45,2.8,99.93631,-0.862,0.521,80.3,0,109.5,13.59,-0.11,348.3
"2010-02-26 00:02:30",1713884,3.152,25.02,7.327,1.246,2.159,99.93206,-0.873,0.395,80.3,0,109.6,13.59,-0.12,347.0
"2010-02-26 00:03:00",1713885,4.464,35.03,6.841,1.321,1.81,99.93206,-0.873,0.35,80.3,0,109.6,13.59,-0.12,357.0
"2010-02-26 00:03:30",1713886,4.267,33.31,4.768,1.12,1.955,99.93206,-0.873,0.436,80.6,0,109.6,13.59,-0.12,355.3
"2010-02-26 00:04:00",1713887,4.536,32.33,6.946,1.034,4.102,99.93037,-0.877,0.543,80.9,0,109.6,13.59,-0.13,354.3
"2010-02-26 00:04:30",1713888,3.868,39.64,6.932,1.275,2.788,99.92103,-0.901,0.434,81,0,109.6,13.6,-0.15,1.6
"2010-02-26 00:05:00",1713889,3.44,40.27,7.308,1.277,1.823,99.90715,-0.936,0.365,81.1,0,109.6,13.59,-0.19,2.3
"2010-02-26 00:05:30",1713890,3.607,42.73,4.377,1.208,1.102,99.90092,-0.952,0.327,81.2,0,109.6,13.6,-0.20,4.7
"2010-02-26 00:06:00",1713891,3.522,40.22,7.373,1.188,1.362,99.89809,-0.959,0.36,81.4,0,109.6,13.6,-0.21,2.2
"2010-02-26 00:06:30",1713892,3.914,23.59,13.83,1.368,2.696,99.89809,-0.959,0.401,81.7,0,109.6,13.6,-0.21,345.6
"2010-02-26 00:07:00",1713893,3.894,3.724,7.077,1.336,3.308,99.89696,-0.962,0.426,81.9,0,109.6,13.6,-0.21,325.7
"2010-02-26 00:07:30",1713894,3.528,14.95,17.52,1.2,3.071,99.8763,-1.015,0.401,82.1,0,109.6,13.6,-0.27,337.0
"2010-02-26 00:08:00",1713895,3.386,31.65,6.594,0.926,0.97,99.8644,-1.045,0.213,82.1,0,109.6,13.6,-0.30,353.6
"2010-02-26 00:08:30",1713896,3.629,40.06,3.641,0.96,-0.173,99.86469,-1.045,0.168,82.2,0,109.6,13.6,-0.30,2.1
"2010-02-26 00:09:00",1713897,4.555,35.23,11.09,1.174,2.503,99.86497,-1.044,0.33,82.6,0,109.6,13.6,-0.30,357.2
"2010-02-26 00:09:30",1713898,4.377,16.71,10.96,1.038,4.048,99.86412,-1.046,0.373,82.8,0,109.6,13.6,-0.30,338.7
"2010-02-26 00:10:00",1713899,4.236,359.1,9.13,1.072,3.626,99.85082,-1.08,0.367,83,0,109.6,13.6,-0.33,321.1
"2010-02-26 00:10:30",1713900,4.338,23.07,10.02,1.365,2.953,99.84487,-1.095,0.209,82.9,0,109.6,13.6,-0.35,345.1
"2010-02-26 00:11:00",1713901,3.108,14.32,6.857,0.996,1.373,99.83609,-1.117,0.13,83,0,109.6,13.6,-0.37,336.3
"2010-02-26 00:11:30",1713902,2.274,0.78,7.172,0.907,0.449,99.83665,-1.116,0.16,83.2,0,109.5,13.6,-0.37,322.8
"2010-02-26 00:12:00",1713903,3.496,1.72,7.752,1.066,1.968,99.84231,-1.102,0.142,83.3,0,109.5,13.6,-0.35,323.7
"2010-02-26 00:12:30",1713904,4.189,1.149,7.98,0.884,3.185,99.83806,-1.112,0.205,83.5,0,109.5,13.6,-0.36,323.1
"2010-02-26 00:13:00",1713905,3.967,351,8.44,1.115,2.566,99.8256,-1.144,0.248,83.7,0,109.5,13.6,-0.40,313.0
"2010-02-26 00:13:30",1713906,4.493,355,8.6,1.01,2.981,99.81597,-1.169,0.209,83.7,0,109.6,13.6,-0.42,317.0
"2010-02-26 00:14:00",1713907,1.572,3.909,11.55,1.348,1.058,99.81512,-1.171,0.126,83.8,0,109.5,13.6,-0.42,325.9
"2010-02-26 00:14:30",1713908,1.314,7.861,16.35,1.064,0.587,99.81908,-1.161,0.02,83.8,0,109.5,13.6,-0.41,329.9
"2010-02-26 00:15:00",1713909,1.858,352.2,9.72,0.589,-0.905,99.81851,-1.162,0.006,83.9,0,109.5,13.63,-0.41,314.2
"2010-02-26 00:15:30",1713910,2.734,346.4,5.82,0.766,-0.266,99.81992,-1.159,0.09,84.1,0,109.5,13.6,-0.41,308.4
"2010-02-26 00:16:00",1713911,4.251,352.7,6.34,0.986,2.866,99.82105,-1.156,0.118,84.3,0,109.5,13.6,-0.41,314.7
"2010-02-26 00:16:30",1713912,4.217,356.8,7.543,0.909,3.704,99.82105,-1.156,0.194,84.4,0,109.5,13.6,-0.41,318.8
"2010-02-26 00:17:00",1713913,2.94,12.22,16.71,0.86,3.699,99.80917,-1.186,0.198,84.6,0,109.5,13.6,-0.44,334.2
"2010-02-26 00:17:30",1713914,2.453,5.746,6.902,1.197,1.548,99.79331,-1.226,0.025,84.5,0,109.5,13.6,-0.48,327.7
"2010-02-26 00:18:00",1713915,1.657,356.1,4.823,0.396,-1.161,99.79047,-1.234,-0.101,84.5,0,109.5,13.64,-0.49,318.1
"2010-02-26 00:18:30",1713916,2.08,350.5,2.207,0.17,-1.162,99.79047,-1.234,-0.081,84.7,0,109.5,13.64,-0.49,312.5
"2010-02-26 00:19:00",1713917,3.257,9.08,8.54,1.104,2.577,99.78991,-1.235,0.11,85.1,0,109.5,13.61,-0.49,331.1
"2010-02-26 00:19:30",1713918,3.866,8.92,5.377,0.599,4.192,99.78963,-1.236,0.167,85.3,0,109.5,13.61,-0.49,330.9
"2010-02-26 00:20:00",1713919,3.391,9.7,8.29,0.786,4.225,99.7933,-1.226,0.111,85.4,0,109.5,13.61,-0.48,331.7
"2010-02-26 00:20:30",1713920,1.455,11.69,8.99,0.956,0.801,99.79245,-1.229,0.04,85.4,0,109.5,13.61,-0.48,333.7
"2010-02-26 00:21:00",1713921,0.879,15.82,14.94,0.249,-1.445,99.77914,-1.263,-0.16,85.3,0,109.5,13.65,-0.52,337.8
"2010-02-26 00:21:30",1713922,0.697,5.783,8.98,0.142,-1.269,99.76441,-1.3,-0.191,85.4,0,109.5,13.65,-0.55,327.8
"2010-02-26 00:22:00",1713923,2.376,32.65,11.43,1.349,0.85,99.76214,-1.306,-0.044,85.6,0,109.5,13.62,-0.56,354.6
"2010-02-26 00:22:30",1713924,2.757,36.13,5.85,1.198,2.67,99.76214,-1.306,0.029,85.8,0,109.5,13.62,-0.56,358.1
"2010-02-26 00:23:00",1713925,3.723,51.86,6.313,0.551,3.885,99.76214,-1.306,0.107,85.9,0,109.5,13.62,-0.56,13.9
"2010-02-26 00:23:30",1713926,3.463,47.48,7.1,1.144,2.283,99.76214,-1.306,0.001,85.9,0,109.5,13.62,-0.56,9.5
"2010-02-26 00:24:00",1713927,2.585,50.49,9.57,1.21,0.749,99.76214,-1.306,-0.089,85.9,0,109.5,13.62,-0.56,12.5
"2010-02-26 00:24:30",1713928,1.048,28.16,8.1,0.262,-0.842,99.76214,-1.306,-0.25,85.9,0,109.5,13.65,-0.56,350.2
"2010-02-26 00:25:00",1713929,1.911,25.85,14.11,1.473,1.463,99.76073,-1.31,-0.052,86.1,0,109.5,13.62,-0.56,347.9
"2010-02-26 00:25:30",1713930,2.836,27.23,14.28,1.011,3.084,99.75252,-1.33,-0.036,86.2,0,109.5,13.62,-0.58,349.2
"2010-02-26 00:26:00",1713931,2.512,24.57,18.36,1.36,2.399,99.74062,-1.361,0.034,86.3,0,109.5,13.63,-0.61,346.6
"2010-02-26 00:26:30",1713932,3.146,32.28,8.2,1.136,3,99.731,-1.385,-0.038,86.3,0,109.5,13.62,-0.64,354.3
"2010-02-26 00:27:00",1713933,3.626,49.51,7.696,1.069,2.144,99.72874,-1.391,-0.11,86.3,0,109.5,13.62,-0.64,11.5
"2010-02-26 00:27:30",1713934,2.076,40.98,4.455,0.178,-0.938,99.72816,-1.393,-0.263,86.3,0,109.5,13.65,-0.65,3.0
"2010-02-26 00:28:00",1713935,2.551,35.76,6.225,1.115,0.621,99.72816,-1.393,-0.127,86.5,0,109.5,13.63,-0.65,357.8
"2010-02-26 00:28:30",1713936,3.058,37.08,7.316,1.135,2.741,99.72816,-1.393,-0.033,86.7,0,109.5,13.63,-0.65,359.1
"2010-02-26 00:29:00",1713937,3.023,44.23,5.499,0.965,2.512,99.72816,-1.393,-0.069,86.7,0,109.5,13.62,-0.65,6.2
"2010-02-26 00:29:30",1713938,3.792,51.18,6.858,1.146,2.692,99.72816,-1.393,-0.052,86.8,0,109.5,13.62,-0.65,13.2
"2010-02-26 00:30:00",1713939,3.591,49.46,6.609,1.264,1.755,99.72761,-1.394,-0.168,86.7,0,109.5,13.62,-0.65,11.5
"2010-02-26 00:30:30",1713940,2.463,40.88,4.59,0.614,-0.141,99.72562,-1.399,-0.216,86.8,0,109.5,13.62,-0.65,2.9
"2010-02-26 00:31:00",1713941,4.141,52.72,5.648,1.098,2.782,99.714,-1.429,-0.135,87,0,109.5,13.62,-0.68,14.7
"2010-02-26 00:31:30",1713942,3.83,57.46,5.284,1.126,3.144,99.70183,-1.46,-0.077,87.1,0,109.5,13.62,-0.71,19.5
"2010-02-26 00:32:00",1713943,3.575,56.21,4.607,1.156,3.488,99.69645,-1.473,-0.047,87.3,0,109.5,13.62,-0.73,18.2
"2010-02-26 00:32:30",1713944,3.556,55.73,6.465,1.087,3.087,99.69419,-1.479,-0.147,87.2,0,109.5,13.62,-0.73,17.7
"2010-02-26 00:33:00",1713945,3.127,51.28,6.821,1.152,1.491,99.69419,-1.479,-0.243,87.2,0,109.5,13.62,-0.73,13.3
"2010-02-26 00:33:30",1713946,2.255,42.26,2.822,0.714,-0.538,99.69419,-1.479,-0.359,87.2,0,109.5,13.62,-0.73,4.3
"2010-02-26 00:34:00",1713947,2.461,40.98,7.065,1.107,0.389,99.69419,-1.479,-0.237,87.4,0,109.5,13.62,-0.73,3.0
"2010-02-26 00:34:30",1713948,3.758,51.09,6.362,1.12,2.796,99.69419,-1.479,-0.144,87.6,0,109.5,13.63,-0.73,13.1
"2010-02-26 00:35:00",1713949,3.379,50.35,6.105,1.158,2.935,99.69419,-1.479,-0.138,87.7,0,109.5,13.63,-0.73,12.3
"2010-02-26 00:35:30",1713950,3.785,52.92,4.95,1.01,2.91,99.69419,-1.479,-0.197,87.7,0,109.5,13.63,-0.73,14.9
"2010-02-26 00:36:00",1713951,2.037,44.77,5.14,0.746,0.191,99.68966,-1.491,-0.211,87.8,0,109.5,13.63,-0.74,6.8
"2010-02-26 00:36:30",1713952,2.176,45.3,6.517,1.014,-0.278,99.68003,-1.515,-0.399,87.7,0,109.5,13.63,-0.77,7.3
"2010-02-26 00:37:00",1713953,2.539,44.86,4.363,1.253,1.158,99.66927,-1.543,-0.195,87.9,0,109.5,13.63,-0.80,6.9
"2010-02-26 00:37:30",1713954,3.103,39.4,6.036,1.063,2.793,99.66219,-1.561,-0.228,88,0,109.5,13.63,-0.81,1.4
"2010-02-26 00:38:00",1713955,2.608,37.27,6.254,1.215,2.573,99.66077,-1.564,-0.158,88.1,0,109.5,13.63,-0.82,359.3
"2010-02-26 00:38:30",1713956,2.792,37.93,6.873,1.109,2.446,99.66049,-1.565,-0.204,88.2,0,109.5,13.63,-0.82,359.9
"2010-02-26 00:39:00",1713957,2.182,31.7,4.929,1.161,0.593,99.66049,-1.565,-0.389,88,0,109.5,13.63,-0.82,353.7
"2010-02-26 00:39:30",1713958,1.339,27.61,2,0.23,-1.147,99.6602,-1.566,-0.376,88.2,0,109.5,13.63,-0.82,349.6
"2010-02-26 00:40:00",1713959,2.312,31.91,5.847,1.219,0.809,99.6602,-1.566,-0.293,88.3,0,109.5,13.63,-0.82,353.9
"2010-02-26 00:40:30",1713960,2.354,30.37,6.287,1.266,0.826,99.6602,-1.566,-0.325,88.3,0,109.5,13.63,-0.82,352.4
"2010-02-26 00:41:00",1713961,2.809,36.51,6.316,1.288,2.006,99.6602,-1.566,-0.195,88.5,0,109.5,13.63,-0.82,358.5
"2010-02-26 00:41:30",1713962,3.197,39.09,5.835,1.12,2.971,99.66049,-1.565,-0.158,88.6,0,109.5,13.63,-0.82,1.1
"2010-02-26 00:42:00",1713963,1.989,31.51,4.946,1.045,0.329,99.66105,-1.564,-0.394,88.4,0,109.5,13.63,-0.82,353.5
"2010-02-26 00:42:30",1713964,2.433,34.61,6.661,1.229,0.44,99.65964,-1.567,-0.335,88.6,0,109.5,13.63,-0.82,356.6
"2010-02-26 00:43:00",1713965,2.17,34.15,6.84,1.268,0.677,99.64944,-1.593,-0.327,88.6,0,109.5,13.64,-0.85,356.1
"2010-02-26 00:43:30",1713966,1.804,30.31,4.793,0.925,-0.115,99.63726,-1.624,-0.398,88.7,0,109.5,13.64,-0.88,352.3
"2010-02-26 00:44:00",1713967,3.17,35.62,6.568,1.125,2.784,99.62905,-1.645,-0.255,88.9,0,109.5,13.64,-0.90,357.6
"2010-02-26 00:44:30",1713968,3.299,37.4,5.626,0.909,3.388,99.62933,-1.644,-0.228,88.9,0,109.5,13.64,-0.90,359.4
"2010-02-26 00:45:00",1713969,2.134,28.15,6.473,1.004,0.36,99.62735,-1.649,-0.386,88.8,0,109.5,13.64,-0.90,350.1
"2010-02-26 00:45:30",1713970,2.668,29.62,7.087,1.188,1.03,99.62877,-1.646,-0.36,88.9,0,109.5,13.63,-0.90,351.6
"2010-02-26 00:46:00",1713971,2.24,34.03,6.423,1.161,0.711,99.62989,-1.643,-0.379,89,0,109.5,13.63,-0.90,356.0
"2010-02-26 00:46:30",1713972,1.671,31.06,4.713,0.772,-0.315,99.63158,-1.639,-0.387,89,0,109.5,13.63,-0.89,353.1
"2010-02-26 00:47:00",1713973,2.871,36.5,6.559,1.186,1.482,99.63412,-1.632,-0.36,89.1,0,109.5,13.63,-0.89,358.5
"2010-02-26 00:47:30",1713974,3.192,39.43,5.735,1.12,2.829,99.63638,-1.626,-0.214,89.3,0,109.5,13.63,-0.88,1.4
"2010-02-26 00:48:00",1713975,2.819,39.18,5.558,1.202,2.114,99.6361,-1.627,-0.369,89.2,0,109.5,13.63,-0.88,1.2
"2010-02-26 00:48:30",1713976,1.552,33.62,5.633,0.855,0.021,99.63836,-1.621,-0.377,89.3,0,109.5,13.63,-0.88,355.6
"2010-02-26 00:49:00",1713977,2.534,38.31,6.072,1.261,0.948,99.64005,-1.617,-0.445,89.2,0,109.5,13.63,-0.87,0.3
"2010-02-26 00:49:30",1713978,2.306,37.6,5.798,1.109,0.849,99.63892,-1.62,-0.399,89.3,0,109.5,13.63,-0.87,359.6
"2010-02-26 00:50:00",1713979,2.683,39.28,5.958,1.165,0.735,99.6358,-1.628,-0.496,89.3,0,109.5,13.63,-0.88,1.3
"2010-02-26 00:50:30",1713980,3.501,45.5,5.746,1.071,2.947,99.63493,-1.63,-0.336,89.5,0,109.5,13.64,-0.88,7.5
"2010-02-26 00:51:00",1713981,3.045,44.67,5.491,1.173,2.541,99.62644,-1.652,-0.281,89.6,0,109.5,13.64,-0.91,6.7
"2010-02-26 00:51:30",1713982,2.373,39.72,6.942,1.218,0.464,99.62446,-1.657,-0.431,89.6,0,109.5,13.64,-0.91,1.7
"2010-02-26 00:52:00",1713983,2.501,40.95,6.344,1.188,0.957,99.62473,-1.656,-0.464,89.6,0,109.5,13.64,-0.91,3.0
"2010-02-26 00:52:30",1713984,2.678,39.56,7.615,1.359,1.079,99.62077,-1.666,-0.44,89.6,0,109.5,13.64,-0.92,1.6
"2010-02-26 00:53:00",1713985,2.579,37.9,7.095,1.306,1.028,99.61765,-1.674,-0.475,89.7,0,109.5,13.64,-0.93,359.9
"2010-02-26 00:53:30",1713986,3.593,43.66,5.573,1.103,2.699,99.61707,-1.676,-0.374,89.8,0,109.5,13.64,-0.93,5.7
"2010-02-26 00:54:00",1713987,2.877,40.67,6.963,1.248,2.696,99.6165,-1.677,-0.322,90,0,109.5,13.64,-0.93,2.7
"2010-02-26 00:54:30",1713988,2.546,36.58,6.568,1.184,1.888,99.61707,-1.676,-0.412,89.9,0,109.5,13.64,-0.93,358.6
"2010-02-26 00:55:00",1713989,2.831,37.36,6.502,1.352,1.734,99.61735,-1.675,-0.447,89.9,0,109.5,13.64,-0.93,359.4
"2010-02-26 00:55:30",1713990,1.845,32.45,3.828,0.564,-0.542,99.61735,-1.675,-0.478,89.9,0,109.5,13.64,-0.93,354.5
"2010-02-26 00:56:00",1713991,2.85,37.78,7.498,1.261,0.962,99.61792,-1.674,-0.475,90,0,109.5,13.64,-0.93,359.8
"2010-02-26 00:56:30",1713992,2.926,34.46,5.775,1.135,1.353,99.61848,-1.672,-0.404,90.1,0,109.5,13.64,-0.93,356.5
"2010-02-26 00:57:00",1713993,3.542,40.84,7.135,1.215,2.918,99.61848,-1.672,-0.364,90.2,0,109.5,13.64,-0.93,2.8
"2010-02-26 00:57:30",1713994,4.561,44.99,4.351,0.699,3.725,99.61819,-1.673,-0.334,90.3,0,109.5,13.64,-0.93,7.0
"2010-02-26 00:58:00",1713995,2.912,37.25,5.424,1.037,0.531,99.61961,-1.669,-0.492,90.2,0,109.5,13.64,-0.92,359.2
"2010-02-26 00:58:30",1713996,3.458,40.23,6.146,1.27,2.222,99.61819,-1.673,-0.399,90.3,0,109.5,13.64,-0.93,2.2
"2010-02-26 00:59:00",1713997,2.511,33.26,6.365,1.268,0.466,99.61819,-1.673,-0.576,90.2,0,109.5,13.64,-0.93,355.3
"2010-02-26 00:59:30",1713998,3.19,37.04,5.918,1.133,2.351,99.61791,-1.674,-0.506,90.3,0,109.5,13.64,-0.93,359.0
"2010-02-26 01:00:00",1713999,3.182,34.26,6.449,1.185,2.174,99.61763,-1.674,-0.42,90.4,0,109.5,13.64,-0.93,356.3
"2010-02-26 01:00:30",1714000,3.546,37.5,4.509,1.079,3.381,99.61225,-1.688,-0.373,90.5,0,109.5,13.64,-0.94,359.5
"2010-02-26 01:01:00",1714001,2.355,30.2,5.768,1.095,0.71,99.60913,-1.696,-0.476,90.4,0,109.5,13.64,-0.95,352.2
"2010-02-26 01:01:30",1714002,3.473,37.56,6.289,1.194,2.209,99.60857,-1.697,-0.48,90.5,0,109.5,13.64,-0.95,359.6
"2010-02-26 01:02:00",1714003,2.554,31.24,5.029,1.134,0.921,99.60488,-1.707,-0.509,90.5,0,109.5,13.64,-0.96,353.2
"2010-02-26 01:02:30",1714004,1.977,26.79,4.645,0.901,-0.224,99.60517,-1.706,-0.599,90.5,0,109.5,13.64,-0.96,348.8
"2010-02-26 01:03:00",1714005,2.863,26.98,6.026,1.249,2.171,99.60403,-1.709,-0.397,90.7,0,109.5,13.64,-0.96,349.0
"2010-02-26 01:03:30",1714006,3.655,30.35,4.506,0.676,3.686,99.60346,-1.71,-0.371,90.7,0,109.5,13.64,-0.96,352.4
"2010-02-26 01:04:00",1714007,2.439,25.74,6.521,1.215,1.212,99.60572,-1.705,-0.558,90.6,0,109.5,13.64,-0.96,347.7
"2010-02-26 01:04:30",1714008,2.397,25.74,6.465,1.174,0.619,99.6043,-1.708,-0.429,90.7,0,109.5,13.64,-0.96,347.7
"2010-02-26 01:05:00",1714009,2.535,25.87,6.626,1.243,1.043,99.60487,-1.707,-0.581,90.6,0,109.5,13.64,-0.96,347.9
"2010-02-26 01:05:30",1714010,2.119,22.93,6.811,1.162,0.948,99.60714,-1.701,-0.512,90.7,0,109.5,13.64,-0.95,344.9
"2010-02-26 01:06:00",1714011,2.134,16.57,6.705,1.104,0.813,99.60459,-1.707,-0.488,90.7,0,109.5,13.64,-0.96,338.6
"2010-02-26 01:06:30",1714012,3.09,26.03,7.518,1.118,3.062,99.60515,-1.706,-0.407,90.8,0,109.5,13.64,-0.96,348.0
"2010-02-26 01:07:00",1714013,3.649,29.86,4.353,0.89,3.431,99.60685,-1.702,-0.423,90.8,0,109.5,13.65,-0.96,351.9
"2010-02-26 01:07:30",1714014,2.503,24.19,6.086,1.24,1.347,99.60911,-1.696,-0.498,90.8,0,109.5,13.65,-0.95,346.2
"2010-02-26 01:08:00",1714015,2.47,22.22,7.092,1.179,0.938,99.60713,-1.701,-0.527,90.7,0,109.5,13.65,-0.95,344.2
"2010-02-26 01:08:30",1714016,1.371,16.39,5.867,0.695,-0.361,99.60713,-1.701,-0.512,90.8,0,109.5,13.65,-0.95,338.4
"2010-02-26 01:09:00",1714017,2.39,12.82,9.41,1.261,1.143,99.60798,-1.699,-0.582,90.7,0,109.5,13.65,-0.95,334.8
"2010-02-26 01:09:30",1714018,3.757,24.11,9.56,1.015,3.052,99.60769,-1.7,-0.391,90.9,0,109.5,13.65,-0.95,346.1
"2010-02-26 01:10:00",1714019,4.444,33.89,6.181,0.891,3.858,99.60656,-1.702,-0.329,91,0,109.5,13.65,-0.96,355.9
"2010-02-26 01:10:30",1714020,3.975,28.42,6.356,1.076,3.162,99.60796,-1.699,-0.391,91,0,109.4,13.65,-0.95,350.4
"2010-02-26 01:11:00",1714021,3.287,21.19,15.95,1.704,2.397,99.60769,-1.7,-0.406,91,0,109.5,13.65,-0.95,343.2
"2010-02-26 01:11:30",1714022,3.088,22.76,6.865,0.823,0.831,99.60741,-1.7,-0.592,90.8,0,109.5,13.65,-0.95,344.8
"2010-02-26 01:12:00",1714023,2.836,17.14,7.964,0.769,0.061,99.60655,-1.702,-0.515,90.9,0,109.4,13.65,-0.96,339.1
"2010-02-26 01:12:30",1714024,2.857,16.82,15.32,1.355,2.826,99.60628,-1.703,-0.421,91,0,109.5,13.65,-0.96,338.8
"2010-02-26 01:13:00",1714025,3.823,33.29,8.58,0.775,3.708,99.60458,-1.708,-0.334,91.1,0,109.5,13.65,-0.96,355.3
"2010-02-26 01:13:30",1714026,3.394,26.73,14.37,1.091,2.988,99.60258,-1.713,-0.398,91,0,109.5,13.65,-0.97,348.7
"2010-02-26 01:14:00",1714027,2.04,7.21,12.38,1.11,1.432,99.60202,-1.714,-0.401,91.1,0,109.5,13.65,-0.97,329.2
"2010-02-26 01:14:30",1714028,1.643,357.2,14.54,0.937,-0.376,99.59721,-1.726,-0.579,90.9,0,109.5,13.65,-0.98,319.2
"2010-02-26 01:15:00",1714029,2.039,354.1,9.98,1.067,-0.682,99.59863,-1.723,-0.634,90.9,0,109.5,13.65,-0.98,316.1
"2010-02-26 01:15:30",1714030,2.248,2.272,19.3,1.134,1.527,99.59778,-1.725,-0.39,91.1,0,109.5,13.65,-0.98,324.3
"2010-02-26 01:16:00",1714031,3.434,17.95,16.28,0.918,3.494,99.59721,-1.726,-0.353,91.2,0,109.5,13.65,-0.98,340.0
"2010-02-26 01:16:30",1714032,3.784,342.6,7.33,1.213,2.319,99.59664,-1.728,-0.4,91.2,0,109.5,13.65,-0.98,304.6
"2010-02-26 01:17:00",1714033,4.314,346,7.281,0.91,2.166,99.59296,-1.737,-0.454,91.1,0,109.5,13.65,-0.99,308.0
"2010-02-26 01:17:30",1714034,2.524,342.7,8.49,0.37,-0.505,99.59212,-1.739,-0.546,91.1,0,109.5,13.68,-0.99,304.7
"2010-02-26 01:18:00",1714035,2.831,353.5,14.72,1.46,0.548,99.59212,-1.739,-0.611,91,0,109.5,13.64,-0.99,315.5
"2010-02-26 01:18:30",1714036,3.04,30.34,7.576,0.959,1.749,99.59212,-1.739,-0.422,91.2,0,109.5,13.65,-0.99,352.3
"2010-02-26 01:19:00",1714037,3.335,17.29,12.55,0.878,3.684,99.59212,-1.739,-0.389,91.3,0,109.5,13.65,-0.99,339.3
"2010-02-26 01:19:30",1714038,3.651,47.9,10.51,0.926,3.04,99.59212,-1.739,-0.344,91.4,0,109.4,13.65,-0.99,9.9
"2010-02-26 01:20:00",1714039,2.654,32.07,17.34,1.253,0.95,99.59212,-1.739,-0.588,91.1,0,109.4,13.65,-0.99,354.1
"2010-02-26 01:20:30",1714040,1.162,27.36,16.17,0.375,-1.184,99.59212,-1.739,-0.655,91.1,0,109.4,13.68,-0.99,349.4
"2010-02-26 01:21:00",1714041,2.577,18.07,9.8,1.341,0.982,99.59212,-1.739,-0.502,91.2,0,109.5,13.65,-0.99,340.1
"2010-02-26 01:21:30",1714042,1.607,15.42,23.94,1.131,0.392,99.59212,-1.739,-0.577,91.2,0,109.5,13.65,-0.99,337.4
"2010-02-26 01:22:00",1714043,3.579,41.33,7.895,0.793,3.628,99.59212,-1.739,-0.379,91.4,0,109.5,13.65,-0.99,3.3
"2010-02-26 01:22:30",1714044,4.152,44.58,10.49,1.217,3.174,99.59212,-1.739,-0.402,91.4,0,109.5,13.65,-0.99,6.6
"2010-02-26 01:23:00",1714045,4.593,50.11,7.911,1.052,2.999,99.59212,-1.739,-0.453,91.4,0,109.5,13.65,-0.99,12.1
"2010-02-26 01:23:30",1714046,2.062,5.814,20.3,1.248,1.088,99.59212,-1.739,-0.611,91.3,0,109.5,13.65,-0.99,327.8
"2010-02-26 01:24:00",1714047,1.971,21.55,19.08,1.461,0.849,99.59212,-1.739,-0.525,91.3,0,109.4,13.65,-0.99,343.5
"2010-02-26 01:24:30",1714048,1.55,38.83,6.993,0.883,-1.039,99.59212,-1.739,-0.582,91.3,0,109.5,13.65,-0.99,0.8
"2010-02-26 01:25:00",1714049,2.683,37.36,11.36,1.317,2.175,99.59212,-1.739,-0.48,91.4,0,109.4,13.66,-0.99,359.4
"2010-02-26 01:25:30",1714050,3.288,40.6,7.9,0.978,2.302,99.59098,-1.742,-0.524,91.4,0,109.4,13.66,-1.00,2.6
"2010-02-26 01:26:00",1714051,2.651,25.49,9.04,1.28,2.467,99.58871,-1.748,-0.451,91.5,0,109.4,13.66,-1.00,347.5
"2010-02-26 01:26:30",1714052,2.565,24.34,17.21,1.395,1.504,99.58447,-1.759,-0.62,91.4,0,109.4,13.66,-1.01,346.3
"2010-02-26 01:27:00",1714053,2.028,3.092,12.88,1.005,0.017,99.58418,-1.759,-0.699,91.3,0,109.5,13.65,-1.01,325.1
"2010-02-26 01:27:30",1714054,2.956,27.56,12.65,1.384,1.069,99.57795,-1.775,-0.535,91.5,0,109.4,13.66,-1.03,349.6
"2010-02-26 01:28:00",1714055,2.82,35.25,6.474,1.057,0.688,99.57625,-1.78,-0.575,91.5,0,109.4,13.66,-1.03,357.2
"2010-02-26 01:28:30",1714056,3.738,38.33,7.713,0.774,2.995,99.57341,-1.787,-0.439,91.6,0,109.4,13.66,-1.04,0.3
"2010-02-26 01:29:00",1714057,3.71,31,9.31,1.041,3.061,99.57228,-1.79,-0.398,91.7,0,109.4,13.66,-1.04,353.0
"2010-02-26 01:29:30",1714058,2.376,29.87,13.3,1.391,1.119,99.57115,-1.793,-0.586,91.5,0,109.4,13.66,-1.05,351.9
"2010-02-26 01:30:00",1714059,0.842,2.469,18.38,0.449,-1.09,99.57313,-1.788,-0.639,91.5,0,109.4,13.69,-1.04,324.5
"2010-02-26 01:30:30",1714060,1.749,16.9,21.28,1.212,0.785,99.57313,-1.788,-0.634,91.5,0,109.4,13.66,-1.04,338.9
"2010-02-26 01:31:00",1714061,1.644,35.12,5.549,0.372,-1.299,99.5703,-1.795,-0.687,91.5,0,109.4,13.69,-1.05,357.1
"2010-02-26 01:31:30",1714062,2.647,28.58,17.99,1.174,1.962,99.5703,-1.795,-0.544,91.6,0,109.5,13.66,-1.05,350.6
"2010-02-26 01:32:00",1714063,4.089,40.35,6.128,0.758,3.564,99.56633,-1.805,-0.409,91.8,0,109.4,13.67,-1.06,2.3
"2010-02-26 01:32:30",1714064,3.522,35.4,8.24,1.232,2.566,99.56406,-1.811,-0.506,91.7,0,109.4,13.67,-1.07,357.4
"2010-02-26 01:33:00",1714065,3.161,34.07,5.288,1.183,2.264,99.56406,-1.811,-0.562,91.7,0,109.4,13.66,-1.07,356.1
"2010-02-26 01:33:30",1714066,2.095,25.62,7.22,1.002,0.155,99.5635,-1.812,-0.577,91.7,0,109.4,13.66,-1.07,347.6
"2010-02-26 01:34:00",1714067,2.899,41.67,9.47,0.765,-0.344,99.55981,-1.822,-0.725,91.6,0,109.4,13.66,-1.08,3.7
"2010-02-26 01:34:30",1714068,3.713,50.82,11.16,1.035,2.019,99.5601,-1.821,-0.541,91.7,0,109.4,13.65,-1.08,12.8
"2010-02-26 01:35:00",1714069,2.835,18.59,17.93,0.768,4.062,99.55925,-1.823,-0.419,91.9,0,109.4,13.66,-1.08,340.6
"2010-02-26 01:35:30",1714070,1.698,23.34,6.97,1.043,0.43,99.55925,-1.823,-0.567,91.8,0,109.4,13.65,-1.08,345.3
"2010-02-26 01:36:00",1714071,1.778,25.35,15.93,0.962,1.045,99.5584,-1.825,-0.544,91.8,0,109.4,13.65,-1.08,347.4
"2010-02-26 01:36:30",1714072,1.697,20.5,9.87,0.595,-0.989,99.55811,-1.826,-0.657,91.7,0,109.4,13.65,-1.08,342.5
"2010-02-26 01:37:00",1714073,2.359,28.79,7.801,1.129,0.521,99.55811,-1.826,-0.653,91.7,0,109.4,13.65,-1.08,350.8
"2010-02-26 01:37:30",1714074,3.178,43.84,13.21,1.062,1.122,99.55811,-1.826,-0.484,91.9,0,109.4,13.66,-1.08,5.8
"2010-02-26 01:38:00",1714075,3.252,32.4,18.13,0.8,3.563,99.55811,-1.826,-0.408,92,0,109.4,13.65,-1.08,354.4
"2010-02-26 01:38:30",1714076,3.572,25.96,9.65,0.976,2.656,99.55811,-1.826,-0.483,92,0,109.4,13.65,-1.08,348.0
"2010-02-26 01:39:00",1714077,3.65,39.41,9.36,1.031,2.215,99.55811,-1.826,-0.519,91.9,0,109.4,13.65,-1.08,1.4
"2010-02-26 01:39:30",1714078,1.817,26.66,9.27,0.733,-0.141,99.55811,-1.826,-0.597,91.9,0,109.4,13.66,-1.08,348.7
"2010-02-26 01:40:00",1714079,2.02,19.68,30.62,1.553,0.74,99.55811,-1.826,-0.726,91.8,0,109.4,13.66,-1.08,341.7
"2010-02-26 01:40:30",1714080,3.431,352.7,15.09,1.362,1.878,99.55811,-1.826,-0.576,91.9,0,109.4,13.66,-1.08,314.7
"2010-02-26 01:41:00",1714081,4.813,29,9.22,0.955,3.487,99.55811,-1.826,-0.421,92.1,0,109.4,13.67,-1.08,351.0
"2010-02-26 01:41:30",1714082,3.905,31.25,7.896,1.08,2.986,99.55811,-1.826,-0.508,92,0,109.4,13.67,-1.08,353.2
"2010-02-26 01:42:00",1714083,2.605,9.94,15.79,1.409,2.045,99.55811,-1.826,-0.546,92,0,109.4,13.67,-1.08,331.9
"2010-02-26 01:42:30",1714084,1.836,8.13,20.9,1.086,0.626,99.55811,-1.826,-0.723,91.9,0,109.4,13.66,-1.08,330.1
"2010-02-26 01:43:00",1714085,1.08,358.7,9.61,0.516,-0.372,99.55811,-1.826,-0.665,92,0,109.4,13.7,-1.08,320.7
"2010-02-26 01:43:30",1714086,1.807,4.103,5.758,1.31,0.72,99.55811,-1.826,-0.715,91.9,0,109.4,13.67,-1.08,326.1
"2010-02-26 01:44:00",1714087,1.977,7.207,11.33,1.176,1.413,99.55811,-1.826,-0.545,92.1,0,109.4,13.67,-1.08,329.2
"2010-02-26 01:44:30",1714088,2.219,5.897,6.353,1.27,1.559,99.55811,-1.826,-0.567,92.1,0,109.5,13.67,-1.08,327.9
"2010-02-26 01:45:00",1714089,2.378,10.42,10.7,1.257,1.943,99.55811,-1.826,-0.498,92.2,0,109.4,13.67,-1.08,332.4
"2010-02-26 01:45:30",1714090,2.422,9.49,6.785,1.322,1.83,99.55811,-1.826,-0.542,92.2,0,109.4,13.67,-1.08,331.5
"2010-02-26 01:46:00",1714091,2.112,5.85,8.16,1.198,0.932,99.55811,-1.826,-0.703,92,0,109.4,13.67,-1.08,327.9
"2010-02-26 01:46:30",1714092,2.396,351.6,14.62,1.122,0.624,99.55811,-1.826,-0.618,92.1,0,109.4,13.67,-1.08,313.6